This is the latest recevied weather packets stored in our database for station/object EB5AGF-13. If no packets are shown the sender has not sent any weather packets the latest 10 day(s).
| Time | Temp. | Humidity | Pressure | Rain* | Wind** | Luminosity | Snow |
|---|---|---|---|---|---|---|---|
| 1777919972 | 19.44° C | 79% | 1007.3 hPa | 0 mm | 0.89 m/s, 107° | 9 W/m² | - |
| 1777919671 | 20° C | 79% | 1007.2 hPa | 0 mm | 3.58 m/s, 189° | 12 W/m² | - |
| 1777919369 | 20° C | 79% | 1006.9 hPa | 0 mm | 1.34 m/s, 222° | 16 W/m² | - |
| 1777919064 | 20° C | 79% | 1007 hPa | 0 mm | 1.34 m/s, 3° | 20 W/m² | - |
| 1777918760 | 20° C | 78% | 1007.2 hPa | 0 mm | 0.89 m/s, 237° | 24 W/m² | - |
| 1777918456 | 20° C | 78% | 1007.2 hPa | 0 mm | 1.79 m/s, 214° | 29 W/m² | - |
| 1777918154 | 20° C | 78% | 1007.3 hPa | 0 mm | 3.58 m/s, 192° | 34 W/m² | - |
| 1777917848 | 20° C | 77% | 1007.2 hPa | 0 mm | 1.34 m/s, 216° | 40 W/m² | - |
| 1777917544 | 20° C | 78% | 1007.2 hPa | 0 mm | 0.89 m/s, 84° | 46 W/m² | - |
| 1777917240 | 20° C | 77% | 1007.1 hPa | 0 mm | 3.58 m/s, 230° | 54 W/m² | - |
| 1777916936 | 20° C | 78% | 1007.1 hPa | 0 mm | 1.34 m/s, 2° | 60 W/m² | - |
| 1777916632 | 20.56° C | 77% | 1007.3 hPa | 0 mm | 1.79 m/s, 201° | 67 W/m² | - |
| 1777916329 | 20° C | 77% | 1007.2 hPa | 0 mm | 2.24 m/s, 214° | 75 W/m² | - |
| 1777916024 | 20° C | 77% | 1007.3 hPa | 0 mm | 6.26 m/s, 256° | 81 W/m² | - |
| 1777915720 | 20° C | 77% | 1007.4 hPa | 0 mm | 4.92 m/s, 228° | 88 W/m² | - |
| 1777915412 | 20° C | 77% | 1007.1 hPa | 0 mm | 5.81 m/s, 232° | 100 W/m² | - |
| 1777915111 | 20° C | 77% | 1007.4 hPa | 0 mm | 3.13 m/s, 227° | 111 W/m² | - |
| 1777914792 | 20° C | 77% | 1007.4 hPa | 0 mm | 5.81 m/s, 218° | 113 W/m² | - |
| 1777914490 | 20° C | 76% | 1007.1 hPa | 0 mm | 3.13 m/s, 177° | 125 W/m² | - |
| 1777914169 | 20° C | 76% | 1007.5 hPa | 0 mm | 4.47 m/s, 239° | 134 W/m² | - |
| 1777913864 | 20.56° C | 76% | 1007.3 hPa | 0 mm | 4.92 m/s, 225° | 143 W/m² | - |
| 1777913562 | 20.56° C | 75% | 1007.5 hPa | 0 mm | 5.81 m/s, 220° | 151 W/m² | - |
| 1777913256 | 20.56° C | 75% | 1007.4 hPa | 0 mm | 0.89 m/s, 357° | 163 W/m² | - |
| 1777912953 | 21.11° C | 74% | 1007.4 hPa | 0 mm | 1.79 m/s, 201° | 180 W/m² | - |
| 1777912632 | 21.11° C | 73% | 1007.5 hPa | 0 mm | 2.24 m/s, 236° | 184 W/m² | - |
* Rain latest hour (hover to see other rain measurements)
** Current wind speed in m/s (hover to see current wind gust speed)